| time (UTC) | temp C | wind direction | speed KPH | gust KPH | rain 1hr cm | rain 24hr cm | rain mn cm | humidity % | barometer mb |
| 20260507044217 | 10 | 0.0 | 0.0 | 0.00 | 0.00 | 0.00 | 46 | 1014.5 | |
| 20260507042211 | 11 | 0.0 | 0.0 | 0.00 | 0.00 | 0.00 | 45 | 1014.1 | |
| 20260507040206 | 10 | 0.0 | 0.0 | 0.00 | 0.00 | 0.00 | 46 | 1014.1 | |
| 20260507034201 | 11 | 0.0 | 0.0 | 0.00 | 0.00 | 0.00 | 46 | 1014.0 | |
| 20260507032156 | 11 | 0.0 | 0.0 | 0.00 | 0.00 | 0.00 | 45 | 1014.0 | |
| 20260507030144 | 11 | 0.0 | 0.0 | 0.00 | 0.00 | 0.00 | 45 | 1013.9 | |
| 20260507024136 | 11 | 0.0 | 0.0 | 0.00 | 0.00 | 0.00 | 48 | 1013.9 | |
| 20260507022130 | 11 | 0.0 | 0.0 | 0.00 | 0.00 | 0.00 | 46 | 1014.2 | |
| 20260507020125 | 11 | 0.0 | 0.0 | 0.00 | 0.00 | 0.00 | 45 | 1013.9 | |
| 20260507014119 | 11 | 0.0 | 0.0 | 0.00 | 0.00 | 0.00 | 46 | 1013.8 | |
| 20260507012114 | 11 | 0.0 | 0.0 | 0.00 | 0.00 | 0.00 | 44 | 1013.9 | |
| 20260507010108 | 11 | 0.0 | 0.0 | 0.00 | 0.00 | 0.00 | 46 | 1014.1 | |
| 20260507004102 | 11 | 0.0 | 0.0 | 0.00 | 0.00 | 0.00 | 46 | 1013.9 | |
| 20260507002057 | 12 | 0.0 | 0.0 | 0.00 | 0.00 | 0.00 | 45 | 1014.0 | |
| 20260507000052 | 12 | 0.0 | 0.0 | 0.00 | 0.00 | 0.00 | 46 | 1014.0 | |
| 20260506232038 | 12 | 0.0 | 0.0 | 0.00 | 0.00 | 0.00 | 45 | 1014.0 | |
| 20260506230033 | 11 | 0.0 | 0.0 | 0.00 | 0.00 | 0.00 | 46 | 1014.2 | |
| 20260506224028 | 12 | 0.0 | 0.0 | 0.00 | 0.00 | 0.00 | 44 | 1014.3 | |
| 20260506222022 | 12 | 0.0 | 0.0 | 0.00 | 0.00 | 0.00 | 44 | 1014.1 | |
| 20260506220017 | 12 | 0.0 | 0.0 | 0.00 | 0.00 | 0.00 | 45 | 1014.3 | |
| 20260506214012 | 12 | 0.0 | 0.0 | 0.00 | 0.00 | 0.00 | 45 | 1014.2 | |
| 20260506212007 | 13 | 0.0 | 0.0 | 0.00 | 0.00 | 0.00 | 43 | 1014.1 | |
| 20260506210001 | 12 | 0.0 | 0.0 | 0.00 | 0.00 | 0.00 | 45 | 1013.8 | |
| 20260506203956 | 13 | 0.0 | 0.0 | 0.00 | 0.00 | 0.00 | 45 | 1013.7 | |
| 20260506201951 | 13 | 0.0 | 0.0 | 0.00 | 0.00 | 0.00 | 44 | 1013.6 | |
| 20260506195945 | 12 | 0.0 | 0.0 | 0.00 | 0.00 | 0.00 | 46 | 1013.4 | |
| 20260506193940 | 13 | 0.0 | 0.0 | 0.00 | 0.00 | 0.00 | 46 | 1013.1 | |
| 20260506191934 | 13 | 0.0 | 0.0 | 0.00 | 0.00 | 0.00 | 47 | 1012.8 | |
| 20260506183924 | 14 | 0.0 | 0.0 | 0.00 | 0.00 | 0.00 | 47 | 1012.0 | |
| 20260506181919 | 15 | 0.0 | 0.0 | 0.00 | 0.00 | 0.00 | 45 | 1011.7 | |
| 20260506175914 | 15 | 0.0 | 0.0 | 0.00 | 0.00 | 0.00 | 45 | 1011.6 | |
| 20260506173908 | 16 | 0.0 | 0.0 | 0.00 | 0.00 | 0.00 | 45 | 1011.5 | |
| 20260506171903 | 15 | 0.0 | 0.0 | 0.00 | 0.00 | 0.00 | 46 | 1011.3 | |
| 20260506165858 | 16 | 0.0 | 0.0 | 0.00 | 0.00 | 0.00 | 43 | 1011.5 | |
| 20260506163853 | 16 | 0.0 | 0.0 | 0.00 | 0.00 | 0.00 | 42 | 1011.1 | |
| 20260506161848 | 15 | 0.0 | 0.0 | 0.00 | 0.00 | 0.00 | 43 | 1011.0 | |
| 20260506155843 | 16 | 0.0 | 0.0 | 0.00 | 0.00 | 0.00 | 43 | 1011.1 | |
| 20260506153837 | 16 | 0.0 | 0.0 | 0.00 | 0.00 | 0.00 | 42 | 1010.7 | |
| 20260506151832 | 17 | 0.0 | 0.0 | 0.00 | 0.00 | 0.00 | 40 | 1010.4 | |
| 20260506145827 | 17 | 0.0 | 0.0 | 0.00 | 0.00 | 0.00 | 37 | 1010.5 | |
| 20260506143822 | 17 | 0.0 | 0.0 | 0.00 | 0.00 | 0.00 | 36 | 1010.5 | |
| 20260506141817 | 18 | 0.0 | 0.0 | 0.00 | 0.00 | 0.00 | 34 | 1010.7 | |
| 20260506135811 | 18 | 0.0 | 0.0 | 0.00 | 0.00 | 0.00 | 33 | 1010.7 | |
| 20260506133806 | 18 | 0.0 | 0.0 | 0.00 | 0.00 | 0.00 | 34 | 1010.7 | |
| 20260506131801 | 17 | 0.0 | 0.0 | 0.00 | 0.00 | 0.00 | 39 | 1010.6 | |
| 20260506125756 | 16 | 0.0 | 0.0 | 0.00 | 0.00 | 0.00 | 40 | 1010.8 | |
| 20260506123751 | 16 | 0.0 | 0.0 | 0.00 | 0.00 | 0.00 | 40 | 1011.0 | |
| 20260506121745 | 16 | 0.0 | 0.0 | 0.00 | 0.00 | 0.00 | 39 | 1010.9 | |
| 20260506111730 | 16 | 0.0 | 0.0 | 0.00 | 0.00 | 0.00 | 38 | 1011.2 | |
| 20260506103720 | 17 | 0.0 | 0.0 | 0.00 | 0.00 | 0.00 | 36 | 1011.5 | |
| 20260506101714 | 17 | 0.0 | 0.0 | 0.00 | 0.00 | 0.00 | 36 | 1011.7 | |
| 20260506095709 | 16 | 0.0 | 0.0 | 0.00 | 0.00 | 0.00 | 39 | 1011.6 | |
| 20260506093704 | 15 | 0.0 | 0.0 | 0.00 | 0.00 | 0.00 | 39 | 1011.6 | |
| 20260506091659 | 13 | 0.0 | 0.0 | 0.00 | 0.00 | 0.00 | 41 | 1011.4 | |
| 20260506085654 | 15 | 0.0 | 0.0 | 0.00 | 0.00 | 0.00 | 39 | 1011.6 | |
| 20260506083648 | 15 | 0.0 | 0.0 | 0.00 | 0.00 | 0.00 | 43 | 1011.7 | |
| 20260506081643 | 12 | 0.0 | 0.0 | 0.00 | 0.00 | 0.00 | 50 | 1011.5 | |
| 20260506061612 | 12 | 0.0 | 0.0 | 0.00 | 0.00 | 0.00 | 48 | 1011.2 |